Hourly Weather Rusiniec

Today, 15 April, Thursday

Time Temperature Precipitation Wind Pressure Humidity
00:00 0°C° 0.5 mm 5 mps 751 mmHg 97%
01:00 0°C° 0.5 mm 5 mps 751 mmHg 97%
02:00 +1°C° 0.3 mm 5 mps 751 mmHg 97%
03:00 +1°C° 0.3 mm 5 mps 750 mmHg 97%
04:00 +1°C° 0.3 mm 5 mps 750 mmHg 97%
05:00 +1°C° 0.3 mm 5 mps 750 mmHg 97%
06:00 +1°C° 0.3 mm 5 mps 750 mmHg 96%
07:00 +2°C° 0.3 mm 5 mps 750 mmHg 96%
08:00 +2°C° 0.3 mm 5 mps 750 mmHg 96%
09:00 +2°C° 0.3 mm 5 mps 751 mmHg 96%
10:00 +2°C° 0.3 mm 5 mps 751 mmHg 96%
11:00 +3°C° 0.1 mm 4 mps 751 mmHg 95%
12:00 +4°C° 0.1 mm 4 mps 751 mmHg 95%
13:00 +4°C° 0.1 mm 4 mps 751 mmHg 95%
14:00 +4°C° 0 mm 4 mps 751 mmHg 95%
15:00 +4°C° 0 mm 4 mps 751 mmHg 94%
16:00 +4°C° 0 mm 4 mps 751 mmHg 94%
17:00 +4°C° 0 mm 4 mps 751 mmHg 93%
18:00 +4°C° 0 mm 4 mps 751 mmHg 93%
19:00 +2°C° 0 mm 5 mps 751 mmHg 92%
20:00 +3°C° 0.4 mm 4 mps 751 mmHg 93%
21:00 +3°C° 0.4 mm 4 mps 751 mmHg 94%
22:00 +3°C° 0.4 mm 4 mps 751 mmHg 94%
23:00 +3°C° 0.5 mm 4 mps 750 mmHg 95%

Tomorrow, 16 April, Friday

Time Temperature Precipitation Wind Pressure Humidity
00:00 +3°C° 0.5 mm 4 mps 750 mmHg 95%
01:00 +2°C° 0.5 mm 5 mps 750 mmHg 95%
02:00 +2°C° 0.2 mm 5 mps 750 mmHg 95%
03:00 +2°C° 0.2 mm 5 mps 749 mmHg 95%
04:00 +2°C° 0.2 mm 5 mps 749 mmHg 95%
05:00 +2°C° 0.4 mm 5 mps 749 mmHg 95%
06:00 +2°C° 0.4 mm 5 mps 749 mmHg 95%
07:00 +2°C° 0.4 mm 5 mps 749 mmHg 95%
08:00 +3°C° 0.1 mm 5 mps 749 mmHg 95%
09:00 +4°C° 0.1 mm 4 mps 750 mmHg 94%
10:00 +5°C° 0.1 mm 4 mps 750 mmHg 94%
11:00 +6°C° 0 mm 4 mps 750 mmHg 91%
12:00 +7°C° 0 mm 4 mps 750 mmHg 87%
13:00 +8°C° 0 mm 4 mps 750 mmHg 84%
14:00 +8°C° 0.1 mm 4 mps 750 mmHg 86%
15:00 +8°C° 0.1 mm 4 mps 750 mmHg 87%
16:00 +7°C° 0.1 mm 4 mps 750 mmHg 89%
17:00 +7°C° 0.2 mm 4 mps 750 mmHg 90%
18:00 +7°C° 0.2 mm 4 mps 751 mmHg 91%
19:00 +7°C° 0.2 mm 4 mps 751 mmHg 92%
20:00 +7°C° 0 mm 4 mps 751 mmHg 93%
21:00 +6°C° 0 mm 4 mps 751 mmHg 94%
22:00 +6°C° 0 mm 4 mps 751 mmHg 95%
23:00 +6°C° 0.1 mm 4 mps 751 mmHg 96%

Day after tomorrow, 17 April, Saturday

Time Temperature Precipitation Wind Pressure Humidity
00:00 +7°C° 0.1 mm 3 mps 751 mmHg 96%
01:00 +7°C° 0.1 mm 3 mps 751 mmHg 97%
02:00 +7°C° 0.3 mm 3 mps 751 mmHg 97%
03:00 +7°C° 0.3 mm 3 mps 751 mmHg 97%
04:00 +7°C° 0.3 mm 3 mps 751 mmHg 97%
05:00 +8°C° 0.1 mm 3 mps 752 mmHg 95%
06:00 +8°C° 0.1 mm 3 mps 752 mmHg 92%
07:00 +8°C° 0.1 mm 3 mps 752 mmHg 90%
08:00 +9°C° 0 mm 3 mps 752 mmHg 87%
09:00 +8°C° 0 mm 4 mps 753 mmHg 84%
10:00 +8°C° 0 mm 4 mps 753 mmHg 80%
11:00 +10°C° 0.1 mm 4 mps 753 mmHg 76%
12:00 +11°C° 0.1 mm 4 mps 753 mmHg 71%
13:00 +12°C° 0.1 mm 4 mps 753 mmHg 66%
14:00 +12°C° 0.1 mm 4 mps 753 mmHg 66%
15:00 +12°C° 0.1 mm 4 mps 753 mmHg 65%
16:00 +12°C° 0.1 mm 4 mps 753 mmHg 65%
17:00 +11°C° 0 mm 3 mps 753 mmHg 71%
18:00 +9°C° 0 mm 3 mps 753 mmHg 77%
19:00 +8°C° 0 mm 2 mps 754 mmHg 83%
20:00 +8°C° 0 mm 2 mps 754 mmHg 84%
21:00 +7°C° 0 mm 2 mps 754 mmHg 85%
22:00 +8°C° 0 mm 1 mps 754 mmHg 85%
23:00 +7°C° 0 mm 2 mps 754 mmHg 86%

18 April, Sunday

Time Temperature Precipitation Wind Pressure Humidity
00:00 +6°C° 0 mm 2 mps 754 mmHg 86%
01:00 +6°C° 0 mm 2 mps 754 mmHg 87%
02:00 +5°C° 0 mm 2 mps 754 mmHg 87%
03:00 +5°C° 0 mm 2 mps 754 mmHg 87%
04:00 +5°C° 0 mm 2 mps 754 mmHg 87%
05:00 +5°C° 0 mm 2 mps 754 mmHg 84%
06:00 +6°C° 0 mm 2 mps 754 mmHg 80%
07:00 +6°C° 0 mm 2 mps 754 mmHg 77%
08:00 +8°C° 0 mm 2 mps 754 mmHg 73%
09:00 +9°C° 0 mm 3 mps 754 mmHg 69%
10:00 +10°C° 0 mm 3 mps 754 mmHg 65%
11:00 +10°C° 0 mm 3 mps 754 mmHg 62%
12:00 +12°C° 0 mm 2 mps 754 mmHg 60%
13:00 +13°C° 0 mm 2 mps 754 mmHg 57%
14:00 +13°C° 0 mm 2 mps 754 mmHg 59%
15:00 +13°C° 0 mm 2 mps 754 mmHg 60%
16:00 +12°C° 0 mm 2 mps 754 mmHg 62%
17:00 +12°C° 0 mm 2 mps 754 mmHg 63%
18:00 +10°C° 0 mm 2 mps 754 mmHg 64%
19:00 +10°C° 0 mm 2 mps 754 mmHg 66%
20:00 +9°C° 0 mm 2 mps 754 mmHg 66%
21:00 +9°C° 0 mm 2 mps 754 mmHg 67%
22:00 +9°C° 0 mm 3 mps 754 mmHg 68%
23:00 +9°C° 0 mm 3 mps 754 mmHg 68%

19 April, Monday

Time Temperature Precipitation Wind Pressure Humidity
00:00 +9°C° 0 mm 3 mps 754 mmHg 68%
01:00 +8°C° 0 mm 3 mps 754 mmHg 67%
02:00 +8°C° 0 mm 3 mps 753 mmHg 68%
03:00 +8°C° 0 mm 3 mps 753 mmHg 70%
04:00 +8°C° 0 mm 3 mps 753 mmHg 71%
05:00 +7°C° 0 mm 4 mps 753 mmHg 72%
06:00 +8°C° 0 mm 4 mps 753 mmHg 74%
07:00 +10°C° 0 mm 4 mps 752 mmHg 75%
08:00 +10°C° 0.2 mm 5 mps 752 mmHg 71%
09:00 +12°C° 0.2 mm 5 mps 752 mmHg 67%
10:00 +11°C° 0.2 mm 6 mps 752 mmHg 64%
11:00 +13°C° 0.2 mm 6 mps 751 mmHg 64%
12:00 +13°C° 0.2 mm 5 mps 751 mmHg 65%
13:00 +13°C° 0.2 mm 5 mps 751 mmHg 66%
14:00 +12°C° 0.2 mm 4 mps 750 mmHg 70%
15:00 +12°C° 0.2 mm 3 mps 750 mmHg 75%
16:00 +11°C° 0.2 mm 3 mps 750 mmHg 79%
17:00 +10°C° 0.1 mm 3 mps 749 mmHg 82%
18:00 +10°C° 0.1 mm 3 mps 749 mmHg 84%
19:00 +9°C° 0.1 mm 3 mps 749 mmHg 87%
20:00 +9°C° 0 mm 3 mps 748 mmHg 87%
21:00 +8°C° 0 mm 4 mps 748 mmHg 88%
22:00 +8°C° 0 mm 4 mps 747 mmHg 89%
23:00 +8°C° 0.1 mm 4 mps 747 mmHg 90%

20 April, Tuesday

Time Temperature Precipitation Wind Pressure Humidity
00:00 +8°C° 0.1 mm 4 mps 746 mmHg 90%
01:00 +7°C° 0.1 mm 4 mps 746 mmHg 91%
02:00 +7°C° 0.1 mm 5 mps 746 mmHg 92%
03:00 +7°C° 0.1 mm 5 mps 745 mmHg 92%
04:00 +7°C° 0.1 mm 5 mps 745 mmHg 93%
05:00 +7°C° 0.1 mm 5 mps 744 mmHg 93%
06:00 +7°C° 0.1 mm 5 mps 744 mmHg 92%
07:00 +7°C° 0.1 mm 6 mps 743 mmHg 92%
08:00 +7°C° 0 mm 6 mps 743 mmHg 92%
09:00 +7°C° 0 mm 6 mps 743 mmHg 91%
10:00 +7°C° 0 mm 5 mps 742 mmHg 90%
11:00 +7°C° 0.2 mm 5 mps 742 mmHg 90%
12:00 +6°C° 0.2 mm 5 mps 742 mmHg 90%
13:00 +6°C° 0.2 mm 5 mps 742 mmHg 89%
14:00 +6°C° 0.7 mm 5 mps 741 mmHg 90%
15:00 +5°C° 0.7 mm 5 mps 741 mmHg 91%
16:00 +5°C° 0.7 mm 5 mps 741 mmHg 92%
17:00 +3°C° 0.3 mm 5 mps 740 mmHg 93%
18:00 +3°C° 0.3 mm 5 mps 740 mmHg 94%
19:00 +4°C° 0.3 mm 4 mps 740 mmHg 95%
20:00 +3°C° 0.3 mm 4 mps 740 mmHg 96%
21:00 +3°C° 0.3 mm 4 mps 739 mmHg 96%
22:00 +3°C° 0.3 mm 4 mps 739 mmHg 96%
23:00 +3°C° 0.7 mm 4 mps 739 mmHg 97%
Show more